EW8513 Weather Reports


Display with metric or nautical units.
time (UTC)temp
F
wind
direction
speed
MPH
gust
MPH
rain 1hr
in
rain 24hr
in
rain mn
in
humidity
%
barometer
mb
20260507104537 49 0 0.0 3.0 0.00 2.09 1.64 90 1007.6
20260507103040 49 0 0.0 2.0 0.00 2.09 1.64 90 1006.9
20260507101538 49 0 0.0 2.0 0.00 2.09 1.64 90 1006.9
20260507100040 50 0 0.0 1.0 0.00 2.09 1.64 90 1006.7
20260507094539 50 0 0.0 3.0 0.00 2.09 1.64 90 1006.8
20260507093037 51 0 0.0 0.0 0.00 2.09 1.64 90 1006.9
20260507091543 51 0 0.0 4.0 0.00 2.09 1.64 90 1007.1
20260507090039 51 0 0.0 1.0 0.00 2.09 1.64 90 1007.0
20260507084538 52 0 0.0 2.0 0.00 2.09 1.64 90 1007.0
20260507083040 52 0 0.0 4.0 0.00 2.09 1.64 89 1006.7
20260507081544 52 0 0.0 5.0 0.00 2.09 1.64 89 1006.5
20260507080036 53 0 0.0 5.0 0.00 2.09 1.64 88 1007.0
20260507074552 53 0 0.0 6.0 0.00 2.09 1.64 88 1006.6
20260507073042 53 0 0.0 4.0 0.00 2.09 1.64 88 1006.1
20260507071541 53 0 0.0 5.0 0.00 2.09 1.64 89 1006.1
20260507070040 53 0 0.0 5.0 0.00 2.09 1.64 90 1006.0
20260507064538 53 0 1.0 8.0 0.00 2.09 1.64 90 1006.1
20260507063037 54 346 0.0 5.0 0.00 2.09 1.64 91 1006.0
20260507061537 55 346 0.0 4.0 0.00 2.09 1.64 92 1005.9
20260507060038 55 0 0.0 5.0 0.00 2.09 1.64 92 1005.9
20260507054547 56 0 0.0 4.0 1.37 2.09 1.64 93 1006.2
20260507053049 56 0 2.0 9.0 1.64 2.09 1.64 93 1006.0
20260507051539 57 0 1.0 5.0 1.64 2.09 1.64 94 1005.9
20260507050038 57 21 1.0 9.0 1.64 2.09 1.64 94 1006.2
20260507044544 57 272 1.0 6.0 0.09 0.55 0.09 94 1006.1
20260507043045 58 0 1.0 10.0 0.00 0.46 0.00 94 1006.0
20260507041542 59 0 0.0 2.0 0.01 0.46 0.00 95 1006.0
20260507040038 60 0 0.0 4.0 0.06 0.46 0.00 95 1005.9
20260507034537 60 0 0.0 4.0 0.06 0.46 0.46 95 1005.8
20260507033039 60 0 0.0 4.0 0.06 0.46 0.46 95 1005.7
20260507031600 59 106 1.0 3.0 0.05 0.45 0.45 95 1005.4
20260507030049 59 106 0.0 7.0 0.00 0.40 0.40 95 1005.1
20260507024542 59 0 0.0 5.0 0.00 0.40 0.40 95 1005.1
20260507023037 59 0 0.0 9.0 0.02 0.40 0.40 95 1005.4
20260507021536 59 0 0.0 8.0 0.02 0.40 0.40 94 1005.3
20260507020040 59 188 0.0 3.0 0.03 0.40 0.40 94 1005.3
20260507014547 59 0 1.0 6.0 0.03 0.40 0.40 94 1005.4
20260507013037 59 0 0.0 7.0 0.01 0.38 0.38 94 1005.4
20260507011538 59 150 0.0 7.0 0.01 0.38 0.38 94 1005.6
20260507010041 59 0 1.0 10.0 0.00 0.37 0.37 93 1005.6
20260507004544 59 0 2.0 6.0 0.00 0.37 0.37 93 1005.7
20260507003048 59 0 0.0 6.0 0.05 0.37 0.37 93 1005.6
20260507001540 60 161 3.0 9.0 0.08 0.37 0.37 93 1005.4
20260507000041 60 147 3.0 7.0 0.08 0.37 0.37 93 1005.4
20260506234537 60 0 0.0 6.0 0.08 0.37 0.37 92 1005.5
20260506233042 61 187 0.0 8.0 0.03 0.32 0.32 92 1005.4
20260506231538 61 0 1.0 5.0 0.05 0.29 0.29 92 1005.4
20260506230042 61 0 1.0 7.0 0.05 0.29 0.29 92 1005.5
20260506224538 61 157 3.0 9.0 0.05 0.29 0.29 91 1005.5
20260506223037 61 178 2.0 11.0 0.05 0.29 0.29 91 1005.5
20260506221537 61 0 0.0 7.0 0.00 0.24 0.24 90 1005.8
20260506220037 61 0 1.0 10.0 0.00 0.24 0.24 90 1006.1
20260506214537 62 153 2.0 10.0 0.00 0.24 0.24 90 1006.1
20260506213038 62 0 0.0 9.0 0.00 0.24 0.24 89 1006.3
20260506211538 62 0 0.0 7.0 0.00 0.24 0.24 88 1006.4
20260506210038 62 0 1.0 9.0 0.01 0.24 0.24 87 1006.3
20260506204543 63 173 1.0 7.0 0.01 0.24 0.24 85 1006.7
20260506203037 64 0 0.0 15.0 0.05 0.24 0.24 83 1006.5
20260506201537 65 0 0.0 5.0 0.05 0.24 0.24 81 1006.5
20260506200039 66 0 0.0 5.0 0.17 0.23 0.23 79 1006.4
20260506194538 67 0 1.0 7.0 0.20 0.22 0.22 77 1006.5
20260506193037 69 0 0.0 5.0 0.17 0.19 0.19 75 1006.5
20260506191537 69 0 0.0 6.0 0.15 0.17 0.17 73 1006.4
20260506190037 70 140 0.0 8.0 0.04 0.06 0.06 69 1006.4
20260506184537 71 0 2.0 12.0 0.00 0.02 0.02 66 1006.5
20260506183039 72 123 2.0 12.0 0.00 0.02 0.02 63 1006.5
20260506181538 72 142 3.0 10.0 0.00 0.02 0.02 62 1006.6
20260506180046 73 136 2.0 9.0 0.00 0.02 0.02 62 1006.9
20260506174541 73 158 1.0 10.0 0.00 0.02 0.02 62 1006.9
20260506173039 74 198 2.0 19.0 0.00 0.02 0.02 61 1007.1
20260506171538 73 182 4.0 10.0 0.00 0.02 0.02 63 1007.2
20260506170050 72 132 3.0 11.0 0.00 0.02 0.02 63 1007.1
20260506164538 73 183 1.0 10.0 0.00 0.02 0.02 63 1007.3
20260506163056 73 155 4.0 17.0 0.00 0.02 0.02 61 1007.6
20260506161537 73 176 3.0 11.0 0.00 0.02 0.02 61 1007.8
20260506160036 73 0 1.0 13.0 0.00 0.02 0.02 62 1008.1
20260506154555 73 153 2.0 9.0 0.02 0.03 0.02 62 1008.4
20260506153049 73 143 3.0 12.0 0.02 0.03 0.02 62 1008.4
20260506151538 73 146 4.0 9.0 0.02 0.03 0.02 64 1008.6
20260506150037 72 211 3.0 8.0 0.02 0.03 0.02 66 1009.0
20260506144537 71 0 4.0 17.0 0.00 0.06 0.00 66 1008.8
20260506143046 71 163 4.0 10.0 0.00 0.06 0.00 66 1008.7
20260506141538 70 42 1.0 12.0 0.00 0.06 0.00 70 1008.6
20260506140039 68 169 2.0 7.0 0.00 0.06 0.00 73 1008.9
20260506134537 67 144 2.0 10.0 0.00 0.06 0.00 73 1009.0
20260506133039 67 173 2.0 11.0 0.00 0.06 0.00 73 1009.3
20260506131537 67 175 0.0 9.0 0.00 0.06 0.00 75 1009.3
20260506130037 66 175 3.0 10.0 0.00 0.06 0.00 75 1009.2
20260506124536 65 149 2.0 9.0 0.00 0.06 0.00 78 1009.1
20260506123038 65 0 2.0 10.0 0.00 0.06 0.00 77 1009.6
20260506121542 64 175 2.0 12.0 0.00 0.06 0.00 79 1009.3
20260506120038 63 0 2.0 8.0 0.00 0.06 0.00 79 1009.5
20260506114544 63 155 3.0 8.0 0.00 0.06 0.00 80 1009.5
20260506113039 63 0 1.0 9.0 0.00 0.06 0.00 81 1009.6
20260506111544 62 0 0.0 10.0 0.00 0.06 0.00 83 1009.5
20260506110038 61 150 3.0 8.0 0.00 0.06 0.00 83 1009.5